Terug naar catalogus

STARLINK-5435

ActiefCommunicatieVLEO
NORAD 54797·PAYLOAD·🇺🇸 United States

Gelanceerd Dec 17, 2022 vanaf Cape Canaveral Space Force Station

Loading…

Volgende Passages (komende 24 uur)

TLE

VersSource: CelesTrak SupGP

Epoch: Sep 14, 2026, 22:02 UTC

1 54797C 22175AR  26257.91854167  .00042796  00000+0  12646-2 0  2577
2 54797  53.1580 264.0075 0001382  92.7597  88.6833 15.34363200    17

Volg STARLINK-5435 in realtime met AllMySat

Download on the App Store